Location: Belfast
(54.5830°N, 5.9330°W)
Time: 15:38:11
(UTC+00:00)

ISS - Visible Passes

Search period start: 23 January 2018 00:00
Search period end: 02 February 2018 00:00
Orbit: 402 x 407 km, 51.6° (Epoch: 23 January)

Date Brightness Start Highest point End Pass type
(mag) Time Alt. Az. Time Alt. Az. Time Alt. Az.
27 Jan -1.4 18:38:08 10° SSE 18:39:07 11° SE 18:39:07 11° SE visible
28 Jan -1.9 19:20:04 10° SSW 19:21:44 21° S 19:21:44 21° S visible
29 Jan -2.0 18:28:16 10° SSW 18:30:39 19° SSE 18:31:37 17° SE visible
29 Jan -1.0 20:03:29 10° WSW 20:04:16 16° WSW 20:04:16 16° WSW visible
30 Jan -1.4 17:36:53 10° S 17:38:30 13° SE 17:40:08 10° ESE visible
30 Jan -2.8 19:11:17 10° SW 19:14:05 35° S 19:14:05 35° S visible
31 Jan -2.5 18:19:12 10° SW 18:22:03 28° SSE 18:23:51 17° ESE visible
31 Jan -1.6 19:54:59 10° WSW 19:56:30 24° WSW 19:56:30 24° WSW visible
01 Feb -3.3 19:02:41 10° WSW 19:05:49 46° S 19:06:14 43° SE visible
